TimeAKDT,TemperatureF,Dew PointF,Humidity,Sea Level PressureIn,VisibilityMPH,Wind Direction,Wind SpeedMPH,Gust SpeedMPH,PrecipitationIn,Events,Conditions,WindDirDegrees,DateUTC
12:53 AM,50.0,48.0,93,29.76,6.0,ESE,10.4,-,0.00,Rain,Light Rain,110,2013-08-19 08:53:00
1:40 AM,50.0,48.0,93,29.76,10.0,East,10.4,-,0.01,,Overcast,100,2013-08-19 09:40:00
1:53 AM,50.0,48.9,96,29.76,10.0,East,8.1,-,0.01,Fog,Patches of Fog,90,2013-08-19 09:53:00
2:53 AM,51.1,48.9,92,29.76,10.0,ENE,5.8,-,N/A,Fog,Patches of Fog,60,2013-08-19 10:53:00
3:53 AM,50.0,48.9,96,29.76,10.0,East,5.8,-,0.00,Rain,Light Rain,80,2013-08-19 11:53:00
4:53 AM,50.0,48.9,96,29.75,10.0,ENE,5.8,-,0.00,,Overcast,60,2013-08-19 12:53:00
5:53 AM,50.0,48.9,96,29.76,10.0,Calm,Calm,-,N/A,,Overcast,0,2013-08-19 13:53:00
6:53 AM,50.0,48.9,96,29.76,10.0,Calm,Calm,-,N/A,,Overcast,0,2013-08-19 14:53:00
7:53 AM,51.1,48.9,92,29.77,10.0,Calm,Calm,-,N/A,,Overcast,0,2013-08-19 15:53:00
8:53 AM,52.0,48.9,89,29.78,10.0,Calm,Calm,-,N/A,,Overcast,0,2013-08-19 16:53:00
9:53 AM,54.0,48.9,83,29.79,10.0,Calm,Calm,-,N/A,,Overcast,0,2013-08-19 17:53:00
10:53 AM,55.0,48.9,80,29.81,10.0,ESE,5.8,-,N/A,,Overcast,110,2013-08-19 18:53:00
11:53 AM,55.9,48.0,75,29.82,10.0,East,3.5,-,N/A,,Overcast,90,2013-08-19 19:53:00
12:53 PM,57.0,48.9,74,29.84,10.0,East,5.8,-,N/A,,Overcast,80,2013-08-19 20:53:00
1:53 PM,57.9,50.0,75,29.85,10.0,East,4.6,-,N/A,,Overcast,90,2013-08-19 21:53:00
2:53 PM,59.0,50.0,72,29.86,10.0,ESE,6.9,-,N/A,,Overcast,110,2013-08-19 22:53:00
3:53 PM,60.1,51.1,72,29.86,10.0,ESE,8.1,-,N/A,,Overcast,120,2013-08-19 23:53:00
4:53 PM,57.9,51.1,78,29.87,10.0,East,8.1,-,N/A,,Overcast,100,2013-08-20 00:53:00
5:53 PM,57.9,51.1,78,29.88,10.0,ESE,8.1,-,0.00,,Overcast,110,2013-08-20 01:53:00
6:53 PM,55.9,51.1,84,29.90,10.0,NNE,8.1,-,0.00,Rain,Light Rain,30,2013-08-20 02:53:00
7:53 PM,54.0,51.1,90,29.92,4.0,ENE,8.1,-,0.01,Rain,Light Rain,60,2013-08-20 03:53:00
8:53 PM,53.1,51.1,93,29.93,5.0,East,8.1,-,0.03,Rain,Light Rain,80,2013-08-20 04:53:00
9:53 PM,53.1,51.1,93,29.94,10.0,ENE,8.1,-,0.03,Rain,Light Rain,70,2013-08-20 05:53:00
10:37 PM,53.1,51.1,93,29.94,10.0,ENE,9.2,-,0.01,Rain,Light Rain,70,2013-08-20 06:37:00
10:53 PM,53.1,51.1,93,29.95,10.0,NE,6.9,-,0.01,,Overcast,50,2013-08-20 06:53:00
11:10 PM,53.1,51.1,93,29.95,9.0,ENE,5.8,-,0.00,Rain,Light Rain,60,2013-08-20 07:10:00
11:53 PM,53.1,51.1,93,29.96,10.0,ENE,9.2,-,0.02,Rain,Light Rain,70,2013-08-20 07:53:00